Location: *
(50.5492°N, 7.7469°E)
Time: 12:11:05
(UTC+00:00)

ADEOS Rocket - Pass Details

Date: 21 October 2019
Orbit: 859 x 1306 km, 98.7° (Epoch: 13 November)

Event Time Altitude Azimuth Distance (km) Brightness Sun altitude
Rises 17:54:08 0° 20° (NNE) 4,298 6.2 -14.7°
Reaches altitude 10° 17:57:32 10° 33° (NNE) 3,297 5.5 -15.3°
Maximum altitude 18:03:38 25° 86° (E) 2,254 4.3 -16.2°
Enters shadow 18:07:23 17° 126° (SE) 2,624 4.7 -16.8°
Exits shadow 18:10:27 - 145° (SE) 3,385 5.5 -17.3°
Sets 18:12:26 0° 153° (SSE) 3,980 5.9 -17.6°
